Keahole Point, HI

2:06 AM HST on August 22, 2017 (GMT -1000)
Kona International At Keahole

Weather History for PHKO - May, 2013

Change the Weather History Date:

Saturday, May 11, 2013

  Actual Average Record
Temperature  
Mean Temperature 80 °F -  
Max Temperature 82 °F 80 °F 90 °F (1986)
Min Temperature 77 °F 70 °F 66 °F (1987)
Cooling Degree Days 14    
Growing Degree Days 30 (Base 50)    
Moisture  
Dew Point 70 °F    
Average Humidity 72    
Maximum Humidity 82    
Minimum Humidity 65    
Precipitation  
Precipitation 0.00 in - - ()
Sea Level Pressure  
Sea Level Pressure 30.03 in    
Wind  
Wind Speed 6 mph (South)    
Max Wind Speed 12 mph    
Max Gust Speed -    
Visibility 10 miles    
Events      
Averages and records for this station are not official NWS values.
T = Trace of Precipitation, MM = Missing Value Source: NWS Daily Summary

Daily Weather History Graph

Daily Weather History Graph

Search for Another Location

Airport or City:

Trip Planner

Search our weather history database for the weather conditions in past years. The results will help you decide how hot, cold, wet, or windy it might be!

Date:

Astronomy

May. 11, 2013 Rise Set
Actual Time 5:49 AM HST 6:51 PM HST
Civil Twilight 5:26 AM HST 7:14 PM HST
Nautical Twilight 4:58 AM HST 7:42 PM HST
Astronomical Twilight 4:30 AM HST 8:10 PM HST
Moon 7:10 AM HST (5/11) 8:35 PM HST (5/11)
Length of Visible Light 13h 48m
Length of Day
13h 01m
Waxing Crescent, 3% of the Moon is Illuminated
May 11
Waxing Crescent
May 17
First Quarter
May 24
Full
May 31
Last Quarter
Jun 8
New

Hourly Weather History & Observations

Time (HST) Temp. Heat Index Dew Point Humidity Pressure Visibility Wind Dir Wind Speed Gust Speed Precip Events Conditions
12:53 AM 78.1 °F - 69.1 °F 74% 30.06 in 10.0 mi SE 5.8 mph - N/A   Overcast
1:53 AM 77.0 °F - 69.1 °F 76% 30.03 in 10.0 mi SE 5.8 mph - N/A   Mostly Cloudy
2:53 AM 78.1 °F - 69.1 °F 74% 30.01 in 10.0 mi ESE 5.8 mph - N/A   Overcast
3:53 AM 77.0 °F - 68.0 °F 74% 30.01 in 10.0 mi ESE 5.8 mph - N/A   Scattered Clouds
4:53 AM 77.0 °F - 69.1 °F 76% 30.01 in 10.0 mi ESE 3.5 mph - N/A   Mostly Cloudy
5:44 AM 78.8 °F - 69.8 °F 74% 30.02 in 10.0 mi NW 5.8 mph - N/A   Overcast
5:53 AM 77.0 °F - 71.1 °F 82% 30.02 in 10.0 mi NW 6.9 mph - N/A   Overcast
6:53 AM 78.1 °F - 71.1 °F 79% 30.04 in 10.0 mi West 4.6 mph - N/A   Mostly Cloudy
7:53 AM 79.0 °F - 71.1 °F 77% 30.05 in 10.0 mi SW 5.8 mph - N/A   Partly Cloudy
8:53 AM 80.1 °F 83.2 °F 70.0 °F 71% 30.04 in 10.0 mi SW 9.2 mph - N/A   Clear
9:53 AM 82.0 °F 86.3 °F 71.1 °F 69% 30.05 in 10.0 mi SW 8.1 mph - N/A   Clear
10:53 AM 82.9 °F 87.5 °F 71.1 °F 67% 30.05 in 10.0 mi SSW 9.2 mph - N/A   Mostly Cloudy
11:53 AM 82.9 °F 87.5 °F 71.1 °F 67% 30.04 in 10.0 mi SW 9.2 mph - N/A   Mostly Cloudy
12:53 PM 82.9 °F 87.5 °F 71.1 °F 67% 30.02 in 10.0 mi SSW 10.4 mph - N/A   Overcast
1:53 PM 82.9 °F 87.5 °F 71.1 °F 67% 30.00 in 10.0 mi SSW 11.5 mph - N/A   Overcast
2:53 PM 82.9 °F 87.0 °F 70.0 °F 65% 29.99 in 10.0 mi WSW 8.1 mph - N/A   Mostly Cloudy
3:53 PM 82.9 °F 87.0 °F 70.0 °F 65% 29.98 in 10.0 mi WSW 8.1 mph - N/A   Mostly Cloudy
4:53 PM 82.9 °F 87.0 °F 70.0 °F 65% 29.98 in 10.0 mi SSW 8.1 mph - N/A   Mostly Cloudy
5:53 PM 82.0 °F 85.9 °F 70.0 °F 67% 29.99 in 10.0 mi SSW 6.9 mph - N/A   Overcast
6:53 PM 81.0 °F 84.4 °F 70.0 °F 69% 30.01 in 10.0 mi SSE 6.9 mph - N/A   Partly Cloudy
7:53 PM 80.1 °F 83.2 °F 70.0 °F 71% 30.03 in 10.0 mi South 6.9 mph - N/A   Overcast
8:45 PM 78.8 °F - 69.8 °F 74% 30.04 in 10.0 mi SSW 4.6 mph - N/A   Mostly Cloudy
8:53 PM 79.0 °F - 70.0 °F 74% 30.04 in 10.0 mi South 4.6 mph - N/A   Scattered Clouds
9:00 PM 78.8 °F - 69.8 °F 74% 30.04 in 10.0 mi Calm Calm - N/A   Mostly Cloudy
9:35 PM 78.8 °F - 69.8 °F 74% 30.05 in 10.0 mi South 3.5 mph - N/A   Overcast
9:53 PM 79.0 °F - 70.0 °F 74% 30.06 in 10.0 mi East 3.5 mph - N/A   Mostly Cloudy
10:36 PM 78.8 °F - 69.8 °F 74% 30.06 in 10.0 mi NE 4.6 mph - N/A   Mostly Cloudy
10:53 PM 78.1 °F - 70.0 °F 76% 30.06 in 10.0 mi North 5.8 mph - N/A   Mostly Cloudy
11:19 PM 78.8 °F - 69.8 °F 74% 30.05 in 10.0 mi NE 4.6 mph - N/A   Partly Cloudy
11:43 PM 78.8 °F - 69.8 °F 74% 30.05 in 10.0 mi North 4.6 mph - N/A   Mostly Cloudy
11:53 PM 78.1 °F - 69.1 °F 74% 30.05 in 10.0 mi NNE 3.5 mph - N/A   Mostly Cloudy